User: anonymous   Login
Location: Terra Rouge Observatory
(46.0000°N, 62.7500°W)
Time: 20:32:13
(UTC-04:00)
Language:

Landsat 5 - Orbit

View from above orbital plane
View from above orbital plane
View from above satellite
View from above satellite

Ground track
Ground track

The orbit data is extracted from the following two-line orbital elements,

1 14780U 84021A   15058.06707626  .00001863  00000-0  18415-3 0  9998
2 14780 098.0332 144.6209 0094911 057.3623 015.6888 14.89880569650558
Epoch (UTC): 27 February 2015 01:36:35
Eccentricity: 0.0094911
inclination: 98.0332°
perigee height: 532 km
apogee height: 664 km
right ascension of ascending node: 144.6209°
argument of perigee: 57.3623°
revolutions per day: 14.89880569
mean anomaly at epoch: 15.6888°
orbit number at epoch: 65055

The dashed part of the orbit path shows where the satellite is in the earth's shadow,  

DLR